AC5JC-1 Weather Reports


Display with metric or nautical units.
time (UTC)temp
F
wind
direction
speed
MPH
gust
MPH
rain 1hr
in
rain 24hr
in
rain mn
in
humidity
%
barometer
mb
20260506164554 51 40 1.0 3.0 0.00 0.07 0.07 96 1015.5
20260506164035 51 52 2.0 5.0 0.00 0.07 0.07 96 1015.4
20260506163534 51 41 1.0 3.0 0.00 0.07 0.07 97 1015.4
20260506163055 51 43 2.0 5.0 0.00 0.07 0.07 97 1015.3
20260506162534 51 44 2.0 5.0 0.00 0.07 0.07 98 1015.2
20260506162034 51 45 2.0 3.0 0.00 0.07 0.07 97 1015.2
20260506161534 51 27 2.0 5.0 0.01 0.07 0.07 97 1015.2
20260506161034 51 47 1.0 3.0 0.02 0.07 0.07 97 1015.1
20260506160535 52 61 1.0 3.0 0.04 0.07 0.07 97 1015.1
20260506160035 51 47 2.0 3.0 0.04 0.07 0.07 97 1015.0
20260506155535 51 32 2.0 6.0 0.05 0.07 0.07 97 1015.2
20260506155034 51 54 2.0 5.0 0.06 0.07 0.07 97 1015.3
20260506154534 51 61 1.0 2.0 0.06 0.07 0.07 97 1015.6
20260506154034 51 31 1.0 2.0 0.06 0.07 0.07 97 1015.7
20260506153534 51 29 2.0 3.0 0.06 0.07 0.07 97 1015.3
20260506153035 51 50 2.0 2.0 0.06 0.07 0.07 97 1015.0
20260506152535 51 34 3.0 7.0 0.07 0.07 0.07 97 1015.0
20260506152034 51 40 2.0 3.0 0.07 0.07 0.07 97 1016.1
20260506151638 51 61 0.0 1.0 0.06 0.06 0.06 97 1016.6
20260506151058 51 66 1.0 2.0 0.05 0.05 0.05 96 1016.8
20260506150534 51 43 1.0 2.0 0.03 0.03 0.03 95 1017.3
20260506150034 51 81 0.0 1.0 0.03 0.03 0.03 94 1017.4
20260506145535 51 112 0.0 1.0 0.02 0.02 0.02 94 1017.4
20260506145034 51 65 0.0 1.0 0.01 0.01 0.01 93 1017.0
20260506144535 51 55 1.0 2.0 0.01 0.01 0.01 93 1016.5
20260506144035 51 336 1.0 5.0 0.01 0.01 0.01 93 1016.1
20260506143535 51 53 2.0 3.0 0.01 0.01 0.01 94 1015.1
20260506143054 51 39 1.0 3.0 0.01 0.01 0.01 93 1015.1
20260506142535 51 64 0.0 1.0 0.00 0.00 0.00 93 1015.5
20260506142034 51 72 1.0 1.0 0.00 0.00 0.00 93 1015.1
20260506141618 51 39 2.0 3.0 0.00 0.00 0.00 92 1015.3
20260506141058 52 15 1.0 2.0 0.00 0.00 0.00 92 1015.6
20260506140535 52 49 2.0 5.0 0.00 0.00 0.00 90 1015.5
20260506140055 52 358 2.0 6.0 0.00 0.00 0.00 90 1015.9
20260506135535 52 54 1.0 3.0 0.00 0.00 0.00 90 1016.0
20260506135034 52 39 1.0 3.0 0.00 0.00 0.00 89 1015.9
20260506134555 52 35 2.0 6.0 0.00 0.00 0.00 89 1015.9
20260506134034 52 72 2.0 3.0 0.00 0.00 0.00 89 1015.7
20260506133555 52 48 2.0 5.0 0.00 0.00 0.00 90 1015.1
20260506133035 52 46 2.0 5.0 0.00 0.00 0.00 89 1014.8
20260506132535 51 38 2.0 5.0 0.00 0.00 0.00 90 1014.5
20260506132055 51 20 3.0 8.0 0.00 0.00 0.00 90 1014.5
20260506131535 51 60 3.0 6.0 0.00 0.00 0.00 90 1014.5
20260506131034 51 32 3.0 5.0 0.00 0.00 0.00 90 1014.7
20260506130534 51 75 1.0 3.0 0.00 0.00 0.00 90 1014.8
20260506130035 51 15 2.0 6.0 0.00 0.00 0.00 90 1014.5
20260506125534 51 59 1.0 3.0 0.00 0.00 0.00 91 1014.4
20260506125034 51 33 3.0 5.0 0.00 0.00 0.00 90 1014.2
20260506124534 51 23 3.0 6.0 0.00 0.00 0.00 90 1014.3
20260506124034 51 19 2.0 5.0 0.00 0.00 0.00 90 1014.2
20260506123531 51 21 2.0 6.0 0.00 0.00 0.00 90 1014.1
20260506123114 51 26 3.0 6.0 0.00 0.00 0.00 89 1014.1
20260506122554 51 34 3.0 6.0 0.00 0.00 0.00 89 1014.4
20260506122055 51 23 3.0 7.0 0.00 0.00 0.00 89 1014.2
20260506121531 51 35 2.0 5.0 0.00 0.00 0.00 89 1014.1
20260506121115 52 35 3.0 6.0 0.00 0.00 0.00 89 1013.9
20260506120554 52 55 1.0 2.0 0.00 0.00 0.00 89 1014.0
20260506120056 52 32 2.0 5.0 0.00 0.00 0.00 88 1014.1
20260506115535 52 40 1.0 3.0 0.00 0.00 0.00 88 1014.1
20260506115034 52 37 2.0 5.0 0.00 0.00 0.00 88 1014.1
20260506114523 52 22 3.0 6.0 0.00 0.00 0.00 87 1013.9
20260506114050 52 28 4.0 8.0 0.00 0.00 0.00 86 1013.8
20260506113534 53 19 2.0 5.0 0.00 0.00 0.00 85 1013.7
20260506113035 53 34 2.0 5.0 0.00 0.00 0.00 85 1013.6
20260506112534 53 19 3.0 6.0 0.00 0.00 0.00 84 1013.4
20260506112039 53 36 3.0 5.0 0.00 0.00 0.00 84 1013.3
20260506111603 53 40 2.0 5.0 0.00 0.00 0.00 83 1013.1
20260506111102 54 39 2.0 5.0 0.00 0.00 0.00 82 1013.2
20260506110534 54 29 2.0 5.0 0.00 0.00 0.00 82 1012.9
20260506110055 54 38 2.0 6.0 0.00 0.00 0.00 81 1012.7
20260506105534 54 39 2.0 5.0 0.00 0.00 0.00 81 1012.8
20260506105034 54 34 2.0 5.0 0.00 0.00 0.00 81 1012.7
20260506104523 54 43 2.0 5.0 0.00 0.00 0.00 81 1012.7
20260506104050 54 57 2.0 6.0 0.00 0.00 0.00 81 1012.7
20260506103534 55 52 2.0 3.0 0.00 0.00 0.00 81 1012.6
20260506103055 55 39 3.0 7.0 0.00 0.00 0.00 80 1012.6
20260506102534 55 33 2.0 6.0 0.00 0.00 0.00 80 1012.5
20260506102019 55 51 4.0 7.0 0.00 0.00 0.00 80 1012.4
20260506101535 55 57 1.0 3.0 0.00 0.00 0.00 81 1012.4
20260506101035 55 41 2.0 3.0 0.00 0.00 0.00 80 1012.2
20260506100534 55 38 2.0 3.0 0.00 0.00 0.00 80 1012.1
20260506100034 55 35 2.0 5.0 0.00 0.00 0.00 80 1012.1
20260506095654 55 28 2.0 5.0 0.00 0.00 0.00 80 1012.1
20260506095058 55 38 2.0 5.0 0.00 0.00 0.00 80 1012.0
20260506094535 56 41 2.0 5.0 0.00 0.00 0.00 80 1011.9
20260506094034 56 26 2.0 5.0 0.00 0.00 0.00 81 1011.8
20260506093554 56 48 2.0 2.0 0.00 0.00 0.00 81 1011.6
20260506093035 56 56 1.0 3.0 0.00 0.00 0.00 81 1011.9
20260506092535 56 21 2.0 3.0 0.00 0.00 0.00 81 1011.8
20260506092019 56 45 2.0 3.0 0.00 0.00 0.00 81 1011.5
20260506091603 56 48 1.0 3.0 0.00 0.00 0.00 81 1011.3
20260506091035 56 29 2.0 5.0 0.00 0.00 0.00 81 1011.5
20260506090534 56 38 2.0 5.0 0.00 0.00 0.00 81 1011.6
20260506090035 56 36 2.0 5.0 0.00 0.00 0.00 81 1011.6
20260506085618 56 52 1.0 3.0 0.00 0.00 0.00 81 1011.4
20260506085058 56 3 1.0 5.0 0.00 0.00 0.00 81 1011.3
20260506084539 56 17 1.0 3.0 0.00 0.00 0.00 81 1011.4
20260506084034 56 43 2.0 3.0 0.00 0.00 0.00 82 1011.2
20260506083534 56 39 2.0 5.0 0.00 0.00 0.00 81 1011.3
20260506083055 56 47 2.0 5.0 0.00 0.00 0.00 81 1011.1
20260506082523 56 41 2.0 3.0 0.00 0.00 0.00 81 1011.2
20260506082106 56 44 2.0 3.0 0.00 0.00 0.00 81 1011.1
20260506081547 56 52 2.0 3.0 0.00 0.00 0.00 81 1011.4
20260506081034 56 27 2.0 3.0 0.00 0.00 0.00 81 1011.3
20260506080534 56 41 2.0 3.0 0.00 0.00 0.00 81 1011.1
20260506073035 57 45 1.0 3.0 0.00 0.00 0.00 83 1011.3
20260506072534 57 62 1.0 2.0 0.00 0.00 0.00 83 1011.1
20260506072019 56 306 0.0 2.0 0.00 0.00 0.00 83 1011.1
20260506071603 56 67 1.0 1.0 0.00 0.00 0.00 83 1011.0
20260506071035 56 47 2.0 6.0 0.00 0.00 0.00 83 1010.7
20260506070534 56 54 2.0 5.0 0.00 0.00 0.00 83 1010.6
20260506062034 58 39 2.0 6.0 0.00 0.00 0.00 82 1011.0
20260506061618 58 40 1.0 3.0 0.00 0.00 0.00 83 1010.9
20260506061042 58 20 2.0 6.0 0.00 0.00 0.00 83 1010.8
20260506060534 58 40 2.0 2.0 0.00 0.00 0.00 84 1010.6
20260506051034 59 50 2.0 3.0 0.00 0.00 0.00 84 1011.0
20260506050534 59 46 2.0 5.0 0.00 0.00 0.00 84 1011.0
20260506045034 59 53 3.0 6.0 0.00 0.00 0.00 83 1011.1
20260506044534 60 22 3.0 7.0 0.00 0.00 0.00 83 1010.8
20260506044034 60 31 3.0 7.0 0.00 0.00 0.00 83 1010.8
20260506043534 60 28 3.0 6.0 0.00 0.00 0.00 83 1010.7
20260506043034 60 50 2.0 5.0 0.00 0.00 0.00 83 1010.6
20260506042534 60 36 2.0 5.0 0.00 0.00 0.00 83 1010.7
20260506042034 61 30 2.0 6.0 0.00 0.00 0.00 83 1010.7
20260506041639 61 33 2.0 5.0 0.00 0.00 0.00 83 1010.9
20260506041119 61 50 1.0 3.0 0.00 0.00 0.00 82 1010.8
20260506040539 61 39 2.0 5.0 0.00 0.00 0.00 82 1010.7
20260506040055 61 30 3.0 6.0 0.00 0.00 0.00 82 1010.9
20260506035535 62 38 2.0 3.0 0.00 0.00 0.00 82 1010.7
20260506035034 62 26 3.0 7.0 0.00 0.00 0.00 82 1010.8
20260506034534 62 33 3.0 6.0 0.00 0.00 0.00 82 1010.6
20260506034034 62 26 3.0 6.0 0.00 0.00 0.00 82 1010.4
20260506033534 62 38 3.0 6.0 0.00 0.00 0.00 82 1010.6
20260506033035 62 28 4.0 8.0 0.00 0.00 0.00 82 1010.5
20260506032533 63 42 3.0 7.0 0.00 0.00 0.00 82 1010.3
20260506032033 63 44 3.0 6.0 0.00 0.00 0.00 81 1010.0
20260506031532 63 53 3.0 7.0 0.00 0.00 0.00 81 1009.7
20260506031114 63 18 3.0 7.0 0.00 0.00 0.00 80 1009.4
20260506030554 64 30 2.0 5.0 0.00 0.00 0.00 80 1009.5
20260506030035 64 37 2.0 5.0 0.00 0.00 0.00 80 1009.5
20260506025533 64 35 3.0 6.0 0.00 0.00 0.00 80 1009.5
20260506025053 64 21 2.0 6.0 0.00 0.00 0.00 80 1009.5
20260506024534 65 41 2.0 3.0 0.00 0.00 0.00 80 1009.3
20260506024039 65 43 1.0 5.0 0.00 0.00 0.00 79 1009.3
20260506023607 65 28 3.0 7.0 0.00 0.00 0.00 79 1009.1
20260506023034 65 56 3.0 6.0 0.00 0.00 0.00 80 1009.0
20260506022534 65 32 2.0 3.0 0.00 0.00 0.00 80 1009.1
20260506022034 65 32 1.0 3.0 0.00 0.00 0.00 80 1009.0
20260506021614 65 50 2.0 5.0 0.00 0.00 0.00 79 1009.1
20260506021034 65 49 1.0 3.0 0.00 0.00 0.00 79 1008.8
20260506020533 65 64 0.0 2.0 0.00 0.00 0.00 79 1008.7
20260506020035 65 50 1.0 2.0 0.00 0.00 0.00 79 1008.7
20260506015531 66 76 0.0 2.0 0.00 0.00 0.00 79 1008.5
20260506015114 66 47 1.0 2.0 0.00 0.00 0.00 79 1008.3
20260506014554 66 53 2.0 5.0 0.00 0.00 0.00 78 1008.1
20260506014036 66 70 1.0 2.0 0.00 0.00 0.00 78 1007.9
20260506013534 66 40 1.0 2.0 0.00 0.00 0.00 78 1008.0
20260506013034 66 49 2.0 3.0 0.00 0.00 0.00 77 1007.8
20260506012655 67 40 2.0 3.0 0.00 0.00 0.00 77 1007.6
20260506012019 67 32 2.0 5.0 0.00 0.00 0.00 77 1007.7
20260506011603 67 60 2.0 5.0 0.00 0.00 0.00 77 1007.4
20260506011104 67 26 3.0 5.0 0.00 0.00 0.00 77 1007.0
20260506010533 68 54 2.0 3.0 0.00 0.00 0.00 77 1007.2
20260506010034 68 42 1.0 5.0 0.00 0.00 0.00 76 1006.9
20260506005533 68 74 1.0 3.0 0.00 0.00 0.00 76 1006.8
20260506005054 69 58 2.0 6.0 0.00 0.00 0.00 75 1006.5
20260506004524 69 347 2.0 6.0 0.00 0.00 0.00 75 1006.6
20260506004050 69 56 1.0 3.0 0.00 0.00 0.00 75 1006.5
20260506003534 69 33 2.0 7.0 0.00 0.00 0.00 75 1006.7
20260506003035 70 38 3.0 8.0 0.00 0.00 0.00 74 1006.6
20260506002533 70 69 1.0 3.0 0.00 0.00 0.00 74 1006.4
20260506002054 70 17 2.0 5.0 0.00 0.00 0.00 74 1006.3
20260506001619 71 18 2.0 3.0 0.00 0.00 0.00 74 1006.5
20260506001059 71 28 2.0 5.0 0.00 0.00 0.00 74 1006.2
20260506000554 72 8 3.0 6.0 0.00 0.00 0.00 74 1006.3
20260506000053 72 28 2.0 5.0 0.00 0.00 0.00 73 1006.4
20260505235555 73 85 0.0 1.0 0.00 0.00 0.00 73 1006.4
20260505235054 73 53 2.0 5.0 0.00 0.00 0.00 72 1006.3
20260505234534 73 75 1.0 2.0 0.00 0.00 0.00 71 1006.2
20260505234033 74 57 1.0 3.0 0.00 0.00 0.00 71 1006.2
20260505233534 74 75 1.0 3.0 0.00 0.00 0.00 70 1006.2
20260505233034 74 36 1.0 2.0 0.00 0.00 0.00 70 1006.1
20260505232534 75 15 2.0 5.0 0.00 0.00 0.00 69 1006.0
20260505232053 75 42 1.0 3.0 0.00 0.00 0.00 69 1006.1
20260505231619 75 72 2.0 6.0 0.00 0.00 0.00 69 1005.9
20260505231058 75 40 2.0 6.0 0.00 0.00 0.00 68 1006.0
20260505230559 75 337 2.0 9.0 0.00 0.00 0.00 68 1005.9
20260505230034 76 72 2.0 5.0 0.00 0.00 0.00 67 1005.9
20260505225533 76 9 2.0 5.0 0.00 0.00 0.00 67 1005.8
20260505225033 76 21 2.0 3.0 0.00 0.00 0.00 67 1005.8
20260505224523 77 48 2.0 3.0 0.00 0.00 0.00 67 1006.0
20260505224147 77 26 2.0 5.0 0.00 0.00 0.00 65 1005.8
20260505223547 77 33 2.0 6.0 0.00 0.00 0.00 65 1005.5
20260505223034 78 67 1.0 3.0 0.00 0.00 0.00 65 1005.4
20260505222554 78 57 2.0 3.0 0.00 0.00 0.00 65 1005.6
20260505222034 79 46 2.0 6.0 0.00 0.00 0.00 64 1005.5
20260505221533 79 57 1.0 3.0 0.00 0.00 0.00 64 1005.3
20260505221135 79 106 1.0 2.0 0.00 0.00 0.00 64 1005.2
20260505220555 80 42 2.0 6.0 0.00 0.00 0.00 63 1005.3
20260505220115 80 60 1.0 3.0 0.00 0.00 0.00 64 1005.4
20260505215534 80 59 2.0 8.0 0.00 0.00 0.00 63 1005.4
20260505215033 81 40 2.0 5.0 0.00 0.00 0.00 63 1005.3
20260505214534 81 25 2.0 6.0 0.00 0.00 0.00 63 1005.1
20260505214020 82 18 2.0 3.0 0.00 0.00 0.00 63 1005.1
20260505213607 83 45 2.0 3.0 0.00 0.00 0.00 61 1005.3
20260505213033 84 180 2.0 3.0 0.00 0.00 0.00 59 1005.3
20260505212554 85 59 2.0 6.0 0.00 0.00 0.00 55 1005.1
20260505212034 87 52 2.0 5.0 0.00 0.00 0.00 51 1005.2
20260505211533 86 76 1.0 2.0 0.00 0.00 0.00 50 1005.0
20260505211115 86 14 1.0 3.0 0.00 0.00 0.00 51 1005.1
20260505210715 85 55 2.0 5.0 0.00 0.00 0.00 49 1005.1
20260505210035 85 345 1.0 6.0 0.00 0.00 0.00 48 1005.3
20260505205533 85 321 2.0 6.0 0.00 0.00 0.00 48 1005.4
20260505205034 85 41 2.0 3.0 0.00 0.00 0.00 49 1005.3
20260505204533 85 258 3.0 10.0 0.00 0.00 0.00 49 1005.3
20260505204033 85 104 3.0 6.0 0.00 0.00 0.00 49 1005.4
20260505203554 87 274 4.0 10.0 0.00 0.00 0.00 47 1005.3
20260505203033 87 351 3.0 7.0 0.00 0.00 0.00 49 1005.3
20260505202554 90 45 3.0 8.0 0.00 0.00 0.00 49 1005.2
20260505202020 91 191 2.0 3.0 0.00 0.00 0.00 53 1005.0
20260505201603 90 127 1.0 2.0 0.00 0.00 0.00 57 1005.1
20260505201043 90 117 1.0 2.0 0.00 0.00 0.00 58 1005.2
20260505200533 89 117 0.0 1.0 0.00 0.00 0.00 59 1005.2
20260505200034 89 126 1.0 5.0 0.00 0.00 0.00 59 1005.3
20260505195534 89 144 2.0 2.0 0.00 0.00 0.00 59 1005.3
20260505195034 88 130 1.0 2.0 0.00 0.00 0.00 60 1005.3
20260505194533 89 132 1.0 2.0 0.00 0.00 0.00 60 1005.3
20260505194033 89 146 1.0 3.0 0.00 0.00 0.00 59 1005.4
20260505193534 88 123 1.0 2.0 0.00 0.00 0.00 60 1005.3
20260505193028 88 118 1.0 3.0 0.00 0.00 0.00 60 1005.5
20260505192611 89 156 1.0 2.0 0.00 0.00 0.00 60 1005.4
20260505192051 88 158 1.0 3.0 0.00 0.00 0.00 61 1005.4
20260505191535 88 147 1.0 2.0 0.00 0.00 0.00 60 1005.3
20260505191054 88 154 1.0 5.0 0.00 0.00 0.00 61 1005.2
20260505190533 88 166 2.0 3.0 0.00 0.00 0.00 61 1005.3
20260505190054 88 102 1.0 3.0 0.00 0.00 0.00 62 1005.2
20260505185533 88 185 1.0 3.0 0.00 0.00 0.00 62 1005.2
20260505185034 88 100 1.0 2.0 0.00 0.00 0.00 63 1005.3
20260505184555 87 154 1.0 2.0 0.00 0.00 0.00 63 1005.3
20260505184053 86 192 2.0 3.0 0.00 0.00 0.00 62 1005.2
20260505183619 86 157 2.0 3.0 0.00 0.00 0.00 64 1005.2
20260505183059 85 127 1.0 2.0 0.00 0.00 0.00 65 1005.4
20260505182539 84 129 2.0 3.0 0.00 0.00 0.00 66 1005.4
20260505182033 85 134 2.0 3.0 0.00 0.00 0.00 66 1005.6
20260505181554 84 136 1.0 2.0 0.00 0.00 0.00 66 1005.5
20260505181033 84 150 1.0 3.0 0.00 0.00 0.00 65 1005.5
20260505180534 84 150 1.0 3.0 0.00 0.00 0.00 65 1005.5
20260505180021 85 144 1.0 3.0 0.00 0.00 0.00 66 1005.5
20260505175603 84 135 2.0 2.0 0.00 0.00 0.00 65 1005.6
20260505175043 84 177 2.0 6.0 0.00 0.00 0.00 64 1005.6
20260505174535 85 209 2.0 5.0 0.00 0.00 0.00 64 1005.5
20260505174034 85 178 2.0 6.0 0.00 0.00 0.00 64 1005.4
20260505173639 86 166 2.0 3.0 0.00 0.00 0.00 65 1005.4
20260505173059 86 132 1.0 1.0 0.00 0.00 0.00 66 1005.4
20260505172533 85 94 1.0 2.0 0.00 0.00 0.00 67 1005.3
20260505172034 84 211 2.0 5.0 0.00 0.00 0.00 67 1005.3
20260505171533 84 137 2.0 3.0 0.00 0.00 0.00 69 1005.2
20260505171033 83 115 1.0 2.0 0.00 0.00 0.00 71 1005.3
20260505170533 82 157 1.0 2.0 0.00 0.00 0.00 72 1005.3
20260505170033 82 117 1.0 3.0 0.00 0.00 0.00 73 1005.2
20260505165533 81 129 2.0 2.0 0.00 0.00 0.00 74 1005.3